Weather History for Sussex, NJ

Change the Weather History Date:

Tuesday, September 17, 2013

  Actual Average Record
Temperature  
Mean Temperature 50 °F -  
Max Temperature 63 °F 72 °F 94 °F (1991)
Min Temperature 37 °F 47 °F 31 °F (1964)
Degree Days  
Heating Degree Days 16    
Moisture  
Dew Point 40 °F    
Average Humidity 72    
Maximum Humidity 97    
Minimum Humidity 43    
Precipitation  
Precipitation 0.00 in - - ()
Sea Level Pressure  
Sea Level Pressure 30.38 in    
Wind  
Wind Speed 5 mph (NE)    
Max Wind Speed 12 mph    
Max Gust Speed 20 mph    
Visibility 10 miles    
Events      
Averages and records for this station are not official NWS values.
T = Trace of Precipitation, MM = Missing Value Source: NWS Daily Summary

Daily Weather History Graph

Daily Weather History Graph

Search for Another Location

Airport:

Trip Planner

Search our weather history database for the weather conditions in past years. The results will help you decide how hot, cold, wet, or windy it might be!

Date:

Astronomy

Sep. 17, 2013 Rise Set
Actual Time 6:41 AM EDT 7:03 PM EDT
Civil Twilight 6:13 AM EDT 7:31 PM EDT
Nautical Twilight 5:41 AM EDT 8:03 PM EDT
Astronomical Twilight 5:07 AM EDT 8:37 PM EDT
Moon 5:49 PM EDT (9/17) 4:32 AM EDT (9/17)
Length of Visible Light 13h 17m
Length of Day
12h 22m
Waxing Gibbous, 96% of the Moon is Illuminated
Sep 17
Waxing Gibbous
Sep 19
Full
Sep 26
Last Quarter
Oct 4
New
Oct 11
First Quarter

Hourly Weather History & Observations

Time (EDT) Temp. Dew Point Humidity Pressure Visibility Wind Dir Wind Speed Gust Speed Precip Events Conditions
12:53 AM 48.9 °F 43.0 °F 80% 30.31 in 10.0 mi NNE 6.9 mph - N/A   Clear
1:22 AM 51.8 °F 42.8 °F 71% 30.32 in 10.0 mi NNE 6.9 mph - N/A   Overcast
1:53 AM 50.0 °F 42.1 °F 74% 30.33 in 10.0 mi NNE 8.1 mph - N/A   Overcast
2:19 AM 50.0 °F 41.0 °F 71% 30.33 in 10.0 mi NE 8.1 mph - N/A   Overcast
2:53 AM 48.9 °F 39.0 °F 69% 30.34 in 10.0 mi NE 8.1 mph - N/A   Mostly Cloudy
3:53 AM 44.1 °F 37.9 °F 79% 30.34 in 10.0 mi Calm Calm - N/A   Clear
4:53 AM 39.9 °F 37.9 °F 93% 30.35 in 10.0 mi Calm Calm - N/A   Clear
5:53 AM 39.0 °F 37.9 °F 96% 30.38 in 10.0 mi Calm Calm - N/A   Clear
6:53 AM 37.9 °F 37.0 °F 97% 30.42 in 10.0 mi Calm Calm - N/A   Clear
7:53 AM 42.1 °F 41.0 °F 96% 30.43 in 10.0 mi Calm Calm - N/A   Clear
8:53 AM 48.9 °F 41.0 °F 74% 30.44 in 10.0 mi Variable 5.8 mph - N/A   Clear
9:53 AM 52.0 °F 39.9 °F 63% 30.46 in 10.0 mi NE 10.4 mph - N/A   Clear
10:53 AM 54.0 °F 39.0 °F 57% 30.46 in 10.0 mi NE 11.5 mph 19.6 mph N/A   Clear
11:53 AM 57.0 °F 39.0 °F 51% 30.45 in 10.0 mi NNE 10.4 mph 18.4 mph N/A   Clear
12:53 PM 59.0 °F 39.9 °F 49% 30.43 in 10.0 mi ENE 10.4 mph - N/A   Clear
1:53 PM 60.1 °F 39.9 °F 47% 30.41 in 10.0 mi East 6.9 mph - N/A   Clear
2:53 PM 62.1 °F 39.0 °F 43% 30.39 in 10.0 mi Variable 4.6 mph - N/A   Clear
3:53 PM 62.1 °F 39.9 °F 44% 30.37 in 10.0 mi NE 6.9 mph 16.1 mph N/A   Clear
4:53 PM 62.1 °F 39.0 °F 43% 30.37 in 10.0 mi NNE 6.9 mph - N/A   Clear
5:53 PM 60.1 °F 39.9 °F 47% 30.36 in 10.0 mi East 4.6 mph - N/A   Clear
6:53 PM 54.0 °F 42.1 °F 64% 30.36 in 10.0 mi Calm Calm - N/A   Clear
7:53 PM 46.9 °F 43.0 °F 86% 30.36 in 10.0 mi Calm Calm - N/A   Clear
8:53 PM 45.0 °F 43.0 °F 93% 30.37 in 10.0 mi Calm Calm - N/A   Clear
9:53 PM 43.0 °F 42.1 °F 97% 30.37 in 10.0 mi Calm Calm - N/A   Clear
10:53 PM 42.1 °F 41.0 °F 96% 30.38 in 10.0 mi Calm Calm - N/A   Clear
11:53 PM 41.0 °F 39.9 °F 96% 30.37 in 10.0 mi Calm Calm - N/A   Clear